HULIANWANG DIGUI-151

导读 | 豆包AI

HULIANWANG DIGUI-151即中国卫星互联网低轨151星,于2026年1月19日由中国发射。该卫星属于中国低轨卫星互联网星座组网范畴,旨在构建覆盖全球的天基通信网络,可补全地面网络覆盖盲区,为全球各类终端提供高速稳定的互联网接入服务,进一步推动中国卫星互联网基础设施建设,支撑空天地一体化通信网络发展,服务全球通信互联需求。

基本信息
目录编号:
67527
目录名称:
HULIANWANG DIGUI-151
国际标识:
2026-013F
轨道中心:
EARTH
卫星名称:
HULIANWANG DIGUI-151
卫星全名:
HULIANWANG DIGUI-151
卫星状态:
在轨 (已飞行126 天)
发射日期:
2026-01-19 UTC
国别 :
中国 (CN)
星等 :
--
轨道信息
数据来源 国际轨道数据 AOE轨道数据
星历时间 2026-05-24T11:26:27+0800
1天前
查看轨道信息
2026-05-21T23:00:00+0800
3天前
查看轨道信息
半长轴 7527.437km 7527.439km
偏心率 0.0000905 0.0000637
轨道倾角 50.009° 50.008°
近地点辐角 20.595° 8.464°
升交点赤经 81.840° 90.871°
平近点角 339.496° 172.294°
近地点 1148.618km 1148.822km
远地点 1149.982km 1149.782km
周期 108.325分钟 108.325分钟
每日圈数 13.293278 13.293274
详细信息
使用方式:
暂无
2D轨道图
3D轨道图
轨道高度分析图
轨道倾角分析图
轨道综合分析图
查看轨道综合分析图